THOR ABLESTAR DEB, 1942

Orbit data source: Space-Track

THOR ABLESTAR DEB, 1942 is space debris in LEO originally from a launch on Thu, 29 Jun 1961 UTC launched from the Air Force Eastern Test Range (AFETR). Debris objects in space refer to the collection of defunct objects orbiting the Earth. Examples of debris include non-operational satellites, rocket bodies, and fragments generated from explosions, collisions, or faulty payload assembly.

Loading next visibility...
THOR ABLESTAR DEB details
Identifier
1942, 1961-015HS
Orbit
LEO
Last TLE update13 hours ago
Origin
Flag of USUSAF SSD (US)
ManufacturerUnknown
MissionSpacecraft
Bus & MotorUnknown
MassUnknown
Launch date (UTC)
1961-06-29 (64 years ago)
Launch vehicleUnknown
Launch site
Air Force Eastern Test Range (AFETR)
Object type
Payload
Rocket body
Debris
Shape & HBRUnknown
Radar Cross SectionSmall (<0.1 m²)

Expand to show TLE details & history

TLE from 13 hours ago
0 THOR ABLESTAR DEB
1 01942U 61015HS  25015.39361653  .00000706  00000-0  15731-2 0  9990
2 01942  67.2694   6.9031 0345076 247.7549 268.8831 13.12735708 48830
Epoch: 2025-01-15T09:26Z
Definitive object data (Epoch: 2025-01-15T09:26:48.468Z)
Latitude25.07515°
Longitude-81.13218°
Altitude1,228.902 km
Speed7.236 km/s
True Right ascension11h 42m 37s
True Declination24° 57' 06"
Sunlit
Object was in full shadow at TLE epoch
Visualization TLE readout
Latitude-37.28109°
Longitude-52.53574°
Altitude989.886 km
Speed7.47 km/s
Apparent Right ascension12h 33m 27s
Apparent Declination-39° 38' 54"
Sunlit
Object is in daylight
Visualization observer readout
Local Sidereal Time23:16:53
Azimuth264.874° W
Elevation-75.314°
Doppler factor1
Orbital elements
Apogee altitude1,472.878 km
Perigee altitude949.112 km
Semi-major axis7,589.132 km
Eccentricity0.0345076
Inclination67.2694°
RAAN6.9031°
Arg. of periapsis247.7549°
True anomaly264.93602°
Mean anomaly268.8831°
Eccentric anomaly266.90884°
Mean motion3.28288 °/min
BSTAR0.0015731
Orbital period109.66 mins
Loading maneuver chart data...

THOR ABLESTAR DEB Visibility forecast

Observer location: undefined°, undefined

Span
Click to sort rows by Start time (UTC) header in descending order
Start Az.
Max El. time (UTC)
Max El. Az.
Max El.
End time (UTC)
End Az.
12 mins2025-01-15 23:21:51.531Z149.962° SSE2025-01-15 23:27:51.531Z100.881° ESE23.861°2025-01-15 23:33:51.531Z53.817° ENE
16 mins2025-01-16 01:12:51.531Z216.799° SW2025-01-16 01:19:51.531Z294.253° NW43.862°2025-01-16 01:28:51.531Z25.78° NE
11 mins2025-01-16 03:09:51.531Z284.898° WNW2025-01-16 03:14:51.531Z325.423° NNW20.754°2025-01-16 03:20:51.531Z9.545° NNE
5 mins2025-01-16 07:07:51.531Z9.603° NNE2025-01-16 07:09:51.531Z24.317° NE13.032°2025-01-16 07:12:51.531Z46.242° ENE
13 mins2025-01-16 08:58:51.531Z345.757° N2025-01-16 09:05:51.531Z54.9° ENE32.82°2025-01-16 09:11:51.531Z114.244° SE
13 mins2025-01-16 10:51:51.531Z319.516° NNW2025-01-16 10:58:51.531Z245.919° WSW37.007°2025-01-16 11:04:51.531Z181.878° SSW
|